Location: Courcelles
(49.2596°N, 1.7419°E)
Time: 20:18:27
(UTC+00:00)

Cosmos 1656 Rocket - Pass Details

Date: 17 November 2025
Orbit: 791 x 846 km, 71.1° (Epoch: 10 December)

Event Time Altitude Azimuth Distance (km) Brightness Sun altitude
Rises 18:21:34 0° 185° (S) 3,327 6.9 -21.4°
Reaches altitude 10° 18:24:04 10° 178° (S) 2,408 6.1 -21.8°
Enters shadow 18:28:31 41° 129° (SE) 1,186 4.1 -22.5°
